Location: Hradec Kralove
(50.2170°N, 15.8330°E)
Time: 12:27:05
(UTC+02:00)

Explorer 7 - Pass Details

Date: 29 January 2023
Orbit: 478 x 657 km, 50.3° (Epoch: 26 March)

Event Time Altitude Azimuth Distance (km) Brightness Sun altitude
Rises 15:38:00 0° 257° (WSW) 2,799 11.7 8.0°
Reaches altitude 10° 15:40:12 10° 257° (WSW) 1,930 10.9 7.7°
Maximum altitude 15:44:39 84° 170° (S) 628 7.3 7.1°
Drops below altitude 10° 15:49:21 10° 82° (E) 2,034 9.2 6.6°
Sets 15:51:44 0° 82° (E) 2,963 10.0 6.3°
